[Iaude] MPEC M60: 2022 MM1 [a=0.99,e=0.34,i=5.6,H=24.6]

mpec at marsden.cfa.harvard.edu mpec at marsden.cfa.harvard.edu
Fri Jun 24 08:59:45 EDT 2022


M.P.E.C. 2022-M60                                 Issued 2022 June 24, 12:58 UT

     The Minor Planet Electronic Circulars contain information on unusual
         minor planets and routine data on comets.  They are published
    on behalf of Division F of the International Astronomical Union by the
          Minor Planet Center, Smithsonian Astrophysical Observatory,
                          Cambridge, MA 02138, U.S.A.

             Prepared using the Tamkin Foundation Computer Network

                              MPC at CFA.HARVARD.EDU
            URL https://www.minorplanetcenter.net/    ISSN 1523-6714

                                    2022 MM1                                    


Observations:
     K22M01M* C2022 06 21.29693115 27 39.835-12 26 36.18         20.88wUEM060F52
     K22M01M  C2022 06 21.30782915 27 31.397-12 26 40.43         21.05wUEM060F52
     K22M01M  C2022 06 21.31875815 27 22.885-12 26 44.57         20.94wUEM060F52
     K22M01M  C2022 06 21.32969215 27 14.356-12 26 48.44         20.98wUEM060F52
     K22M01M  C2022 06 21.40128015 26 18.560-12 27 11.82         20.94GVEM060F52
     K22M01M  C2022 06 21.40208415 26 17.965-12 27 11.86         21.05GVEM060F52
     K22M01M KC2022 06 21.90837515 20 05.427-12 28 45.51         19.7 GXEM060Y00
     K22M01M KC2022 06 21.92132215 19 55.145-12 28 50.70               XEM060Y00
     K22M01M KC2022 06 21.93407515 19 44.962-12 28 55.41         19.6 GXEM060Y00
     K22M01M KC2022 06 22.12284615 17 17.46 -12 31 33.9          20.6 VuEM060H21
     K22M01M KC2022 06 22.12548615 17 15.33 -12 31 34.9          20.8 VuEM060H21
     K22M01M KC2022 06 22.12833115 17 13.03 -12 31 35.6          20.7 VuEM060H21
     K22M01M  C2022 06 22.19459615 16 22.567-12 31 48.72         20.8 GVEM060654
     K22M01M  C2022 06 22.22889915 15 54.731-12 31 58.35         20.8 GVEM060654
     K22M01M  C2022 06 22.26119615 15 28.507-12 32 06.75         20.6 GVEM060654
     K22M01M  C2022 06 24.18766314 49 24.405-12 37 48.69         20.8 GVEM060654
     K22M01M  C2022 06 24.24948014 48 29.365-12 37 50.31         20.9 GVEM060654
     K22M01M  C2022 06 24.29299114 47 50.747-12 37 49.50         21.2 GVEM060654

Observer details:
654 Table Mountain Observatory, Wrightwood-PHMC.  Observers N. Evans, P. Choi,
    N. Saini, C. Zhai, R. Trahan, M. Shao.  1.0-m Reflector + CCD.
F52 Pan-STARRS 2, Haleakala.  Observers J. Bulger, T. Lowe, A. Schultz, I.
    Smith, K. Chambers, T. Dukes.  Measurers K. Chambers, S. Chastel, T. de
    Boer, J. Fairlamb, H. Gao, M. Huber, C.-C. Lin, E. Magnier, Y.
    Ramanjooloo, R. Wainscoat, R. Weryk.  1.8-m Ritchey-Chretien + CCD.
H21 Astronomical Research Observatory, Westfield.  Observer R. Holmes.
    Measurers T. Linder, R. Holmes, L. Horn.  0.76-m f/3.0 astrograph + CCD.
Y00 SONEAR Observatory, Oliveira.  Observer C. Jacques.  0.45-m f/2.9 0.45-m
    f/2.9 reflector + CCD.

Orbital elements:
2022 MM1                                                 Earth MOID = 0.0093 AU
Epoch 2022 Aug. 9.0 TT = JDT 2459800.5                  Veres                   
M 321.45386              (2000.0)            P               Q                  
n   0.99375780     Peri.  298.71691     +0.85671080     -0.50642324             
a   0.9945250      Node    91.86249     +0.50079336     +0.77123329             
e   0.3363365      Incl.    5.62056     +0.12350147     +0.38566140             
P   0.99           H   24.67          G   0.15           U   7                  
Residuals in seconds of arc
220621 F52  0.2-  0.0     220621 Y00  0.2-  0.1-    220622 654  0.1-  0.0
220621 F52  0.2+  0.1-    220621 Y00  0.1+  0.3-    220622 654  0.0   0.2+
220621 F52  0.1+  0.1-    220621 Y00  0.1+  0.2-    220622 654  0.2+  0.1+
220621 F52  0.1-  0.0     220622 H21  0.1-  0.2+    220624 654  0.2+  0.1-
220621 F52  0.3-  0.1-    220622 H21  0.1-  0.0     220624 654  0.1-  0.0
220621 F52  0.2+  0.1+    220622 H21  0.2-  0.1+    220624 654  0.2-  0.0

Ephemeris:
2022 MM1                 a,e,i = 0.99, 0.34, 6                   q = 0.6600
Date    TT    R. A. (2000) Decl.     Delta      r    Elong.  Phase     V
2022 05 25    17 57 12.5 -10 25 09   0.2143  1.2051   151.3    23.8    22.8
...
2022 06 09    17 10 32.5 -10 53 28   0.1309  1.1434   168.0    10.7    21.2
...
2022 06 17    16 13 51.5 -11 52 44   0.09715 1.1056   156.4    21.5    20.9
...
2022 06 23    15 05 47.4 -12 33 48   0.07969 1.0752   136.1    40.9    20.9
2022 06 24    14 52 03.7 -12 36 13   0.07766 1.0700   132.1    44.9    21.0
2022 06 25    14 37 44.1 -12 36 24   0.07592 1.0647   127.8    48.9    21.0
...
2022 07 01    13 04 33.5 -11 37 11   0.07195 1.0321   100.4    75.6    21.7
...
2022 07 09    11 12 57.2 -08 07 12   0.08307 0.9865    66.5   109.1    23.4
...
2022 07 24    09 15 19.9 -01 21 20   0.1362  0.8960    26.4   149.8    28.5

M. P. C. Staff               (C) Copyright 2022 MPC           M.P.E.C. 2022-M60




More information about the Iaude mailing list